Location: Unspecified
(0.0000°N, 0.0000°E)
Time: 03:16:21
(UTC+00:00)

NUDT-PHONESAT - Pass Details

Date: 12 December 2017
Orbit: 492 x 511 km, 97.4° (Epoch: 21 June)

Event Time Altitude Azimuth Distance (km) Brightness Sun altitude
Rises 18:49:05 0° 203° (SSW) 2,568 ? -12.7°
Reaches altitude 10° 18:52:13 10° 233° (SW) 1,685 ? -13.4°
Maximum altitude 18:53:45 12° 259° (WSW) 1,543 ? -13.7°
Drops below altitude 10° 18:55:18 10° 284° (WNW) 1,684 ? -14.1°
Sets 18:58:27 0° 315° (NW) 2,566 ? -14.8°
